Location: *
(57.8420°S, 159.8600°W)
Time: 13:16:50
(UTC+00:00)

SL-16 R/B - Pass Details

Date: 18 May 2021
Orbit: 842 x 847 km, 71.0° (Epoch: 22 June)

Event Time Altitude Azimuth Distance (km) Brightness Sun altitude
Rises 03:48:08 0° 31° (NNE) 3,408 5.2 -10.4°
Reaches altitude 10° 03:51:47 10° 54° (NE) 2,483 4.3 -10.8°
Maximum altitude 03:54:35 14° 84° (E) 2,214 3.8 -11.2°
Enters shadow 03:55:23 14° 93° (E) 2,240 3.8 -11.3°
